Regional Weather Roundup
Issued by NWS

Home | Current Version | Previous Version | Text Only | Print | Product List | Glossary On
Versions: 1 2 3 4 5 6 7 8 9 10 11 12 13 14 15 16 17 18 19 20 21 22 23 24 25 26 27 28 29 30 31 32 33 34 35 36 37 38 39 40 41 42 43 44 45 46 47 48 49 50
000
ASUS43 KMKX 201000
RWRWI

WISCONSIN REGIONAL WEATHER ROUNDUP
NATIONAL WEATHER SERVICE MILWAUKEE/SULLIVAN WI
400 AM CST MON FEB 20 2017

NOTE: "FAIR" INDICATES FEW OR NO CLOUDS BELOW 12,000 FEET WITH NO
SIGNIFICANT WEATHER AND/OR OBSTRUCTIONS TO VISIBILITY.

WIZ001-002-006>008-014>016-023>028-201100-
NORTHWEST WISCONSIN

CITY           SKY/WX    TMP DP  RH WIND       PRES   REMARKS
SUPERIOR ARPT  MOCLDY    35  33  94 NE13G20   29.93F WCI  26
ASHLAND        CLOUDY    35  31  85 E3        29.95F
HAYWARD        CLOUDY    50  35  56 SE13G26   29.91F
SIREN          PTCLDY    48  36  61 SE9       29.87F
CUMBERLAND     CLOUDY    43  32  65 SE7       29.90F
RICE LAKE      CLOUDY    45  35  68 E10G16    29.92F
CHETEK         CLOUDY    43  35  74 E8        29.93F
LADYSMITH      PTCLDY    45  35  68 E9        29.97F
EAU CLAIRE     NOT AVBL
MENOMONIE      MOCLDY    44  37  75 E8        29.91F
NEW RICHMOND   CLOUDY    47  38  70 SE7       29.87S
OSCEOLA        CLOUDY    48  39  70 SE9       29.88S
$$

WIZ003>005-009-010-017-018-201100-
NORTH CENTRAL WISCONSIN

CITY           SKY/WX    TMP DP  RH WIND       PRES   REMARKS
MANITOWISH WTR CLOUDY    40  30  69 SE7       30.03F WCI  35
ARBOR VITAE    CLOUDY    42  32  69 SE9       30.04F
WOODRUFF       CLOUDY    42  32  69 SE9       30.04F
RHINELANDER    PTCLDY    38  31  76 E9        30.07F WCI  31
EAGLE RIVER    CLOUDY    37  29  73 SE5       30.09S WCI  33
LAND O LAKES   PTCLDY    38  30  72 SE9       30.08F WCI  32
PHILLIPS       CLOUDY    40  32  73 SE8       30.00F WCI  35
TOMAHAWK       PTCLDY    38  29  69 SE5       30.05F WCI  35
MEDFORD        PTCLDY    38  31  74 SE12      30.01F WCI  31
MERRILL        NOT AVBL
$$

WIZ029-030-035-036-043>047-201100-
CENTRAL WISCONSIN

CITY           SKY/WX    TMP DP  RH WIND       PRES   REMARKS
WAUSAU         PTCLDY    37  29  72 SE8       30.05F WCI  31
MOSINEE        CLOUDY    37  30  75 E12       30.06F WCI  30
MARSHFIELD     CLOUDY    39  30  70 E8        30.01F WCI  33
STEVENS POINT  PTCLDY    35  29  78 E6        30.07F WCI  30
WAUPACA        PTCLDY    33  30  88 CALM      30.10S
WAUTOMA        CLOUDY    35  30  82 NE3       30.08F
WISC RAPIDS    PTCLDY    41  32  70 SE7       30.05F
CAMP DOUGLAS   NOT AVBL
$$

WIZ011>013-019>022-031-037>040-048>050-201100-
NORTHEAST WISCONSIN

CITY           SKY/WX    TMP DP  RH WIND       PRES   REMARKS
ANTIGO         CLOUDY    35  30  83 SE9       30.09S WCI  27
SHAWANO        CLOUDY    33  31  90 CALM      30.13R
OCONTO         CLOUDY    31  29  92 CALM      30.15S
STURGEON BAY   CLOUDY    37  33  85 E8        30.16R WCI  31
GREEN BAY      CLOUDY    34  31  88 NE6       30.12F WCI  29
MANITOWOC      NOT AVBL
APPLETON       CLOUDY    37  28  70 E6        30.09S WCI  33
CLINTONVILLE   CLOUDY    32  30  93 NE6       30.11S WCI  26
OSHKOSH        CLOUDY    41  28  60 SE7       30.10R
$$

WIZ032>034-041-042-053>061-201100-
SOUTHWEST WISCONSIN

CITY           SKY/WX    TMP DP  RH WIND       PRES   REMARKS
LA CROSSE      CLOUDY    52  42  69 SE7       29.94F
SPARTA         MOCLDY    49  41  73 E7        29.98F
VIROQUA        CLOUDY    47  39  73 SE12      29.98F
BOSCOBEL       MOCLDY    48  38  68 NE5       30.00F
PRAIRIE DU CHI CLOUDY    52  42  69 SE6       29.98S
PLATTEVILLE    PTCLDY    43  41  92 E12       30.01S
$$

WIZ056-057-062-063-064-067-068-201100-
SOUTH CENTRAL WISCONSIN

CITY           SKY/WX    TMP DP  RH WIND       PRES   REMARKS
REEDSBURG      PTCLDY    41  37  83 NE5       30.03F
BARABOO/DELLS  PTCLDY    43  35  74 E3        30.04S
LONE ROCK      NOT AVBL
MINERAL POINT  MOCLDY    48  43  81 SE10      30.00F
MADISON        CLOUDY    44  36  73 E3        30.05F
MIDDLETON      CLOUDY    44  37  78 SE5       30.05F
WATERTOWN      PTCLDY    42  33  70 SE3       30.09S
MONROE         MOCLDY    46  41  81 E8        30.04F
JANESVILLE     CLOUDY    39  37  93 E7        30.07F WCI  34
$$

WIZ051-052-058>065-066-070>072-201100-
SOUTHEAST WISCONSIN

CITY           SKY/WX    TMP DP  RH WIND       PRES   REMARKS
MILWAUKEE      CLOUDY    39  34  82 CALM      30.12F
WAUKESHA         N/A     32  30  93 E5        30.12F WCI  27
MILWAUKEE/TIMM CLOUDY    34  30  86 CALM      30.13S
RACINE         PTCLDY    38  32  79 E3        30.14F
KENOSHA        CLOUDY    38  31  76 SE6       30.12R WCI  33
FOND DU LAC    PTCLDY    42  28  57 SE10      30.10S
SHEBOYGAN      CLOUDY    32  29  88 CALM      30.13F
WEST BEND      CLOUDY    32  30  93 CALM      30.12F
JUNEAU         CLOUDY    40  31  70 SE10      30.09F WCI  33
$$

LSZ147-162-201100-
LAKE SUPERIOR

STATION/POSITION TIME  TEMP    WIND        PRES    WAVE
                       AIR SEA DIR/SP/G            HT/PER
                 (UTC) (F)     (DEG/KT/KT) (MB)    (FT/S)
DEVILS ISLAND    0900   37      70/ 10/ 10 1016.0F
PORT WING        0940   35      40/ 12/ 14 1013.5F
SAXON HARBOR     0940   49     170/  7/ 15 1014.6F
$$

LMZ867-665-643>646-201100-
LAKE MICHIGAN

STATION/POSITION TIME  TEMP    WIND        PRES    WAVE
                       AIR SEA DIR/SP/G            HT/PER
                 (UTC) (F)     (DEG/KT/KT) (MB)    (FT/S)
CHAMBERS ISLAND  0940   33      70/  3/  4 1021.3R
NORTHPORT PIER   0940   35     150/  2/  4 1022.4R
SISTER BAY       0905   37     140/  7/ 11   N/A
ALGOMA LAKESHORE 0910             CALM       N/A
KEWAUNEE LAKESHO 0930   37      60/  2/  4 1020.4S
SHEBOYGAN LAKESH 0900   37      70/  1/  2 1021.0F
PORT WASHINGTON  0930   38      30/  4/  6 1021.7R
MILWAUKEE LAKESH 0930   39      40/  5/  6   N/A
KENOSHA   LAKESH 0900   35        CALM     1020.0
$$

TC  - TEMPERATURE IN CELSIUS
VSB - VISIBILITY IN STATUTE MILES
WCI - WIND CHILL INDEX
HX  - HEAT INDEX




USA.gov is the U.S. government's official web portal to all federal, state and local government web resources and services.